| time (UTC) | temp F | wind direction | speed knots | gust knots | rain 1hr in | rain 24hr in | rain mn in | humidity % | barometer mb |
| 20260507141526 | 62 | 227 | 0.0 | 4.3 | 0.03 | 0.03 | 0.03 | 87 | 1008.4 |
| 20260507140026 | 62 | 209 | 3.5 | 9.6 | 0.02 | 0.02 | 0.02 | 87 | 1008.6 |
| 20260507134520 | 62 | 205 | 5.2 | 13.0 | 0.01 | 0.01 | 0.01 | 85 | 1008.9 |
| 20260507133020 | 65 | 159 | 7.0 | 9.6 | 0.00 | 0.00 | 0.00 | 79 | 1009.1 |
| 20260507131518 | 65 | 117 | 6.1 | 12.2 | 0.00 | 0.00 | 0.00 | 77 | 1008.9 |
| 20260507130017 | 67 | 134 | 7.8 | 12.2 | 0.00 | 0.00 | 0.00 | 72 | 1009.2 |
| 20260507124555 | 67 | 129 | 7.8 | 13.9 | 0.00 | 0.00 | 0.00 | 70 | 1009.1 |
| 20260507123047 | 68 | 115 | 7.8 | 14.8 | 0.00 | 0.00 | 0.00 | 71 | 1009.1 |
| 20260507121549 | 68 | 101 | 9.6 | 13.9 | 0.00 | 0.00 | 0.00 | 69 | 1009.3 |
| 20260507120043 | 68 | 124 | 7.8 | 13.9 | 0.00 | 0.00 | 0.00 | 69 | 1009.6 |
| 20260507114541 | 69 | 110 | 9.6 | 13.9 | 0.00 | 0.00 | 0.00 | 69 | 1009.6 |
| 20260507113045 | 67 | 76 | 8.7 | 13.9 | 0.00 | 0.00 | 0.00 | 72 | 1009.6 |
| 20260507111516 | 67 | 104 | 8.7 | 13.9 | 0.00 | 0.00 | 0.00 | 72 | 1009.8 |
| 20260507110008 | 68 | 98 | 7.8 | 13.9 | 0.00 | 0.00 | 0.00 | 72 | 1009.7 |
| 20260507104606 | 68 | 95 | 11.3 | 15.6 | 0.00 | 0.00 | 0.00 | 71 | 1009.8 |
| 20260507103046 | 68 | 96 | 8.7 | 14.8 | 0.00 | 0.00 | 0.00 | 72 | 1009.9 |
| 20260507101530 | 67 | 105 | 9.6 | 18.2 | 0.00 | 0.00 | 0.00 | 74 | 1009.9 |
| 20260507100109 | 67 | 95 | 9.6 | 13.9 | 0.00 | 0.00 | 0.00 | 74 | 1009.7 |
| 20260507094559 | 67 | 115 | 7.0 | 15.6 | 0.00 | 0.00 | 0.00 | 74 | 1010.0 |
| 20260507093053 | 67 | 143 | 7.0 | 13.9 | 0.00 | 0.00 | 0.00 | 73 | 1010.1 |
| 20260507091551 | 67 | 95 | 5.2 | 12.2 | 0.00 | 0.00 | 0.00 | 73 | 1010.1 |
| 20260507090056 | 67 | 107 | 8.7 | 13.9 | 0.00 | 0.00 | 0.00 | 73 | 1010.0 |
| 20260507084549 | 67 | 75 | 7.8 | 12.2 | 0.00 | 0.00 | 0.00 | 74 | 1009.9 |
| 20260507083044 | 66 | 96 | 7.8 | 13.0 | 0.00 | 0.00 | 0.00 | 74 | 1010.0 |
| 20260507081539 | 66 | 88 | 7.8 | 13.0 | 0.00 | 0.00 | 0.00 | 74 | 1009.8 |
| 20260507080042 | 65 | 112 | 7.0 | 9.6 | 0.00 | 0.00 | 0.00 | 75 | 1010.0 |
| 20260507074533 | 65 | 82 | 6.1 | 9.6 | 0.00 | 0.00 | 0.00 | 77 | 1009.8 |
| 20260507073028 | 64 | 119 | 2.6 | 7.0 | 0.00 | 0.00 | 0.00 | 78 | 1009.7 |
| 20260507071525 | 63 | 79 | 0.0 | 5.2 | 0.00 | 0.00 | 0.00 | 80 | 1009.5 |
| 20260507070020 | 62 | 47 | 0.0 | 3.5 | 0.00 | 0.00 | 0.00 | 81 | 1009.4 |
| 20260507064516 | 61 | 163 | 0.0 | 1.7 | 0.00 | 0.00 | 0.00 | 82 | 1009.3 |
| 20260507063047 | 60 | 163 | 0.0 | 0.9 | 0.00 | 0.00 | 0.00 | 85 | 1009.3 |
| 20260507061543 | 58 | 163 | 0.9 | 2.6 | 0.00 | 0.00 | 0.00 | 88 | 1009.2 |
| 20260507060037 | 57 | 163 | 2.6 | 4.3 | 0.00 | 0.00 | 0.00 | 88 | 1009.1 |
| 20260507054554 | 57 | 161 | 1.7 | 3.5 | 0.00 | 0.00 | 0.00 | 87 | 1009.1 |
| 20260507053035 | 57 | 161 | 0.0 | 0.9 | 0.00 | 0.00 | 0.00 | 87 | 1009.2 |
| 20260507051533 | 58 | 161 | 0.0 | 0.9 | 0.00 | 0.00 | 0.00 | 87 | 1009.0 |
| 20260507050007 | 57 | 161 | 0.9 | 4.3 | 0.00 | 0.00 | 0.00 | 87 | 1009.1 |
| 20260507044501 | 57 | 202 | 1.7 | 3.5 | 0.00 | 0.00 | 0.00 | 87 | 1008.9 |
| 20260507043057 | 57 | 215 | 0.0 | 0.9 | 0.00 | 0.00 | 0.00 | 87 | 1008.8 |
| 20260507041603 | 57 | 215 | 0.9 | 2.6 | 0.00 | 0.00 | 0.00 | 87 | 1008.7 |
| 20260507040055 | 58 | 215 | 0.9 | 2.6 | 0.00 | 0.00 | 0.00 | 86 | 1008.8 |
| 20260507034553 | 58 | 85 | 0.9 | 2.6 | 0.00 | 0.00 | 0.00 | 87 | 1008.8 |
| 20260507033048 | 59 | 87 | 0.0 | 1.7 | 0.00 | 0.00 | 0.00 | 86 | 1008.8 |
| 20260507031546 | 59 | 87 | 0.0 | 0.0 | 0.00 | 0.00 | 0.00 | 86 | 1008.7 |
| 20260507030044 | 59 | 87 | 0.0 | 0.9 | 0.00 | 0.00 | 0.00 | 85 | 1008.7 |
| 20260507024545 | 60 | 87 | 0.9 | 2.6 | 0.00 | 0.00 | 0.00 | 85 | 1009.0 |
| 20260507023009 | 60 | 85 | 1.7 | 3.5 | 0.00 | 0.00 | 0.00 | 85 | 1008.8 |
| 20260507021506 | 60 | 107 | 1.7 | 5.2 | 0.00 | 0.00 | 0.00 | 85 | 1008.9 |
| 20260507020002 | 60 | 155 | 1.7 | 2.6 | 0.00 | 0.00 | 0.00 | 86 | 1009.3 |
| 20260507014623 | 60 | 155 | 1.7 | 2.6 | 0.00 | 0.00 | 0.00 | 85 | 1009.3 |
| 20260507013102 | 60 | 155 | 0.0 | 1.7 | 0.00 | 0.00 | 0.00 | 86 | 1009.4 |
| 20260507011605 | 60 | 155 | 1.7 | 2.6 | 0.00 | 0.00 | 0.00 | 86 | 1009.4 |
| 20260507010037 | 60 | 103 | 0.9 | 2.6 | 0.00 | 0.00 | 0.00 | 86 | 1009.3 |
| 20260507004528 | 60 | 95 | 0.0 | 0.0 | 0.00 | 0.00 | 0.00 | 86 | 1009.3 |
| 20260507003026 | 60 | 95 | 0.0 | 0.0 | 0.00 | 0.00 | 0.00 | 86 | 1009.4 |
| 20260507001531 | 61 | 95 | 0.0 | 0.0 | 0.00 | 0.00 | 0.00 | 87 | 1009.5 |
| 20260507000029 | 61 | 95 | 0.0 | 1.7 | 0.00 | 0.00 | 0.00 | 86 | 1009.6 |
| 20260506234522 | 61 | 95 | 0.0 | 1.7 | 0.00 | 0.00 | 0.00 | 86 | 1009.8 |
| 20260506233020 | 61 | 95 | 0.0 | 1.7 | 0.00 | 0.00 | 0.00 | 86 | 1010.0 |
| 20260506231521 | 61 | 95 | 0.9 | 1.7 | 0.00 | 0.00 | 0.00 | 87 | 1010.1 |
| 20260506230019 | 61 | 93 | 0.9 | 2.6 | 0.00 | 0.00 | 0.00 | 86 | 1010.0 |
| 20260506224519 | 61 | 91 | 0.0 | 0.9 | 0.00 | 0.00 | 0.00 | 86 | 1010.1 |
| 20260506223048 | 61 | 75 | 0.0 | 0.9 | 0.00 | 0.00 | 0.00 | 86 | 1009.9 |
| 20260506221556 | 61 | 75 | 0.0 | 0.9 | 0.00 | 0.00 | 0.00 | 87 | 1009.9 |
| 20260506220047 | 61 | 75 | 1.7 | 2.6 | 0.00 | 0.00 | 0.00 | 87 | 1009.9 |
| 20260506214544 | 61 | 76 | 1.7 | 3.5 | 0.00 | 0.00 | 0.00 | 87 | 1010.1 |
| 20260506213052 | 62 | 87 | 1.7 | 3.5 | 0.00 | 0.00 | 0.00 | 86 | 1010.2 |
| 20260506211551 | 62 | 101 | 0.0 | 0.0 | 0.00 | 0.00 | 0.00 | 86 | 1010.4 |
| 20260506210046 | 62 | 101 | 0.0 | 0.9 | 0.00 | 0.00 | 0.00 | 86 | 1010.4 |
| 20260506204539 | 62 | 101 | 0.9 | 1.7 | 0.00 | 0.00 | 0.00 | 85 | 1010.2 |
| 20260506203038 | 63 | 101 | 1.7 | 3.5 | 0.00 | 0.00 | 0.00 | 85 | 1010.2 |
| 20260506201540 | 63 | 95 | 1.7 | 4.3 | 0.00 | 0.00 | 0.00 | 85 | 1009.9 |
| 20260506200037 | 63 | 86 | 1.7 | 6.1 | 0.00 | 0.00 | 0.00 | 83 | 1009.8 |
| 20260506194534 | 63 | 91 | 2.6 | 5.2 | 0.00 | 0.00 | 0.00 | 82 | 1009.7 |
| 20260506193044 | 64 | 107 | 3.5 | 7.0 | 0.00 | 0.00 | 0.00 | 81 | 1009.4 |
| 20260506191532 | 64 | 115 | 4.3 | 8.7 | 0.00 | 0.00 | 0.00 | 81 | 1009.4 |
| 20260506190032 | 65 | 103 | 2.6 | 7.8 | 0.00 | 0.00 | 0.00 | 80 | 1009.2 |
| 20260506184604 | 65 | 139 | 7.8 | 11.3 | 0.00 | 0.00 | 0.00 | 78 | 1009.0 |
| 20260506183104 | 65 | 106 | 7.0 | 12.2 | 0.00 | 0.00 | 0.00 | 77 | 1008.8 |
| 20260506181657 | 66 | 103 | 7.8 | 13.0 | 0.00 | 0.00 | 0.00 | 76 | 1008.8 |
| 20260506180055 | 66 | 114 | 7.8 | 13.9 | 0.00 | 0.00 | 0.00 | 76 | 1008.8 |
| 20260506174554 | 66 | 92 | 5.2 | 12.2 | 0.00 | 0.00 | 0.00 | 75 | 1008.7 |
| 20260506173120 | 66 | 112 | 7.0 | 13.9 | 0.00 | 0.00 | 0.00 | 74 | 1008.6 |
| 20260506171554 | 67 | 125 | 6.1 | 12.2 | 0.00 | 0.00 | 0.00 | 74 | 1008.5 |
| 20260506170104 | 67 | 109 | 10.4 | 16.5 | 0.00 | 0.00 | 0.00 | 72 | 1008.7 |
| 20260506164549 | 67 | 126 | 7.8 | 15.6 | 0.00 | 0.00 | 0.00 | 72 | 1008.4 |
| 20260506163055 | 67 | 86 | 9.6 | 15.6 | 0.00 | 0.00 | 0.00 | 72 | 1008.3 |
| 20260506161547 | 67 | 128 | 9.6 | 14.8 | 0.00 | 0.00 | 0.00 | 70 | 1008.3 |
| 20260506160046 | 68 | 113 | 10.4 | 15.6 | 0.00 | 0.00 | 0.00 | 69 | 1008.5 |
| 20260506154603 | 68 | 107 | 10.4 | 16.5 | 0.00 | 0.00 | 0.00 | 70 | 1008.6 |
| 20260506153042 | 68 | 111 | 10.4 | 15.6 | 0.00 | 0.00 | 0.00 | 70 | 1008.4 |
| 20260506151538 | 68 | 114 | 8.7 | 16.5 | 0.00 | 0.00 | 0.00 | 70 | 1008.5 |
| 20260506150037 | 68 | 141 | 8.7 | 16.5 | 0.00 | 0.00 | 0.00 | 71 | 1008.6 |
| 20260506144542 | 68 | 130 | 11.3 | 17.4 | 0.00 | 0.00 | 0.00 | 72 | 1008.7 |
| 20260506143035 | 68 | 111 | 9.6 | 18.2 | 0.00 | 0.00 | 0.00 | 72 | 1008.9 |